Preview of NWS' New Version of Forecast
This preview is not operational and should not be used for support decisions.

Regional Weather Roundup (RWR)

Issued by National Weather Service (NWS)

                            
000
ASUS46 KSEW 171110
RWRWA 

WASHINGTON REGIONAL WEATHER ROUNDUP
NATIONAL WEATHER SERVICE SEATTLE WA
400 AM PDT WED APR 17 2019

NOTE:"FAIR" INDICATES FEW OR NO CLOUDS BELOW 12,000 FEET WITH NO 
SIGNIFICANT WEATHER AND/OR OBSTRUCTIONS TO VISIBILITY.

WAZ507-509-555>559-171200-
SEATTLE, TACOMA, EVERETT, AND VICINITY
  
CITY           SKY/WX    TMP DP  RH WIND       PRES   REMARKS
EVERETT        CLOUDY    48  44  86 S14       30.18R                  
BOEING FIELD   CLOUDY    50  44  80 S9        30.21R                  
RENTON         CLOUDY    51  47  86 SE5       30.21R                  
SEATAC AIRPORT CLOUDY    49  45  86 SW10      30.20R                  
JBLM-MCCHORD   CLOUDY    49  49 100 S8        30.22R                  
PUYALLUP       CLOUDY    48  46  93 CALM      30.22R                  
BREMERTON      CLOUDY    46  43  89 SW16      30.19R                  
JBLM-FT LEWIS  CLOUDY    49  49 100 S6        30.21R                  
TACOMA NARROWS LGT RAIN  47  46  97 S7        30.21R FOG              
$$
 
WAZ001-503-506-510-514-515-171200-
NORTH INTERIOR
  
CITY           SKY/WX    TMP DP  RH WIND       PRES   REMARKS
BELLINGHAM     CLOUDY    48  45  89 S8        30.16S                  
FRIDAY HARBOR  CLOUDY    48  44  86 S6        30.17S                  
EASTSOUND      CLOUDY    48  46  93 S9        30.14F                  
PORT ANGELES   CLOUDY    46  44  93 SE5       30.17S                  
EDIZ HOOK      CLOUDY    47  45  91 CALM      30.16F                  
PORT TOWNSEND  CLOUDY    48  46  93 CALM      30.17S                  
NAS WHIDBEY    CLOUDY    50  46  86 CALM      30.21R                  
ARLINGTON      LGT RAIN  49  45  86 S8        30.19R                  
BURLINGTON     CLOUDY    48  46  93 CALM      30.18S                  
$$
 
WAZ020-022-039-040-504-511-512-171200-
SOUTHWEST INTERIOR
  
CITY           SKY/WX    TMP DP  RH WIND       PRES   REMARKS
SHELTON        MOCLDY    47  44  90 SW9       30.18S                  
OLYMPIA        MOCLDY    47  45  93 SW7       30.21S                  
CHEHALIS       CLOUDY    48  48 100 CALM      30.23R                  
KELSO          LGT RAIN  49  48  97 CALM      30.26R                  
VANCOUVER      CLOUDY    50  47  89 E3        30.25R                  
SCAPPOOSE, OR  CLOUDY    50  47  89 CALM      30.25R                  
PORTLAND, OR   CLOUDY    51  47  86 CALM      30.26R                  
$$
 
WAZ021-516-517-171200-
WASHINGTON COAST
  
CITY           SKY/WX    TMP DP  RH WIND       PRES   REMARKS
FORKS          LGT RAIN  47  47 100 S6        30.16S FOG              
HOQUIAM        LGT RAIN  48  48 100 SW7       30.21R FOG              
ASTORIA, OR    CLOUDY    50  46  86 S10       30.22F                  
$$
 
WAZ019-023-024-040-567>569-171200-
CASCADE MOUNTAINS AND COLUMBIA GORGE
  
CITY           SKY/WX    TMP DP  RH WIND       PRES   REMARKS
STAMPEDE PASS  NOT AVBL                                               
TROUTDALE, OR  LGT RAIN  50  47  89 CALM      30.26R                  
HOOD RIVER, OR CLOUDY    50  43  76 MISG      30.20R                  
THE DALLES, OR PTCLDY    51  42  71 W10       30.18R                  
$$

WAZ026-027-041>044-520-521-171200-
EAST SLOPES
  
CITY           SKY/WX    TMP DP  RH WIND       PRES   REMARKS
OMAK           CLOUDY    50  34  54 S8        30.02R                  
WENATCHEE      CLOUDY    47  37  68 W6        30.07R                  
ELLENSBURG     CLOUDY    47  37  68 NW14      30.10R                  
YAKIMA         PTCLDY    46  37  71 CALM      30.11R                  
SUNNYSIDE ARPT CLOUDY    48  40  76 CALM      30.12R                  
YAKIMA TC      FAIR      45  36  71 SE6       30.10R                  
$$

WAZ028-034-035-171200-
COLUMBIA BASIN
  
CITY           SKY/WX    TMP DP  RH WIND       PRES   REMARKS
EPHRATA        PTCLDY    48  35  60 NW10      30.07R                  
MOSES LAKE     PTCLDY    51  37  58 SW3       30.08R                  
PASCO          CLOUDY    56  39  53 W17       30.14R                  
RICHLAND ARPT  CLOUDY    53  40  62 SW8       30.14R                  
HERMISTON, OR  CLOUDY    52  41  66 SW12      30.16R                  
$$

WAZ036>038-171200-
NORTHEAST WASHINGTON
  
CITY           SKY/WX    TMP DP  RH WIND       PRES   REMARKS
SPOKANE GEIGER CLOUDY    45  37  73 S14       30.05R                  
SPOKANE FELTS  CLOUDY    48  38  68 SW9       30.05S                  
FAIRCHILD AFB  MOCLDY    44  43  96 S13       30.04R                  
COEURDALENE,ID CLOUDY    46  40  79 S3        30.06R                  
DEER PARK      CLOUDY    46  37  71 S8        30.04R                  
$$

WAZ029>033-171200-
SOUTHEAST WASHINGTON
  
CITY           SKY/WX    TMP DP  RH WIND       PRES   REMARKS
PULLMAN        CLOUDY    47  39  74 SW13      30.13R                  
LEWISTON, ID   CLOUDY    51  40  65 W5        30.13R                  
WALLA WALLA    CLOUDY    51  40  65 SW10      30.15R                  
PENDLETON, OR  MOCLDY    48  40  73 W14       30.15R                  
$$